QPF
0.00 0.00 0.00 0.00 0.00 0.00 0.00 0.00 0.00 0.00 0.00 0.00 0.00 0.00 0.00 0.00 0.00 0.00 0.00 0.00 0.00 0.02 0.19 0.28 0.39 0.45 0.18 0.00 0.00 0.00 0.00 0.01 0.03 0.04 0.05 0.02 0.07 0.05 0.05 0.12 0.08 0.08 0.09 0.10
0.00 0.00 0.00 0.00 0.00 0.00 0.00 0.00 0.00 0.00 0.00 0.00 0.00 0.00 0.00 0.00 0.00 0.01 0.00 0.00 0.00 0.01 0.08 0.27 0.32 0.36 0.32 0.14 0.04 0.00 0.00 0.00 0.00 0.00 0.00 0.00 0.03 0.03 0.01 0.10 0.10 0.11 0.20 0.09
0.00 0.00 0.00 0.00 0.00 0.00 0.00 0.00 0.00 0.00 0.00 0.00 0.00 0.00 0.00 0.00 0.00 0.00 0.00 0.00 0.00 0.02 0.05 0.05 0.06 0.01 0.07 0.27 0.19 0.03 0.02 0.00 0.00 0.00 0.00 0.00 0.00 0.02 0.04 0.03 0.01 0.04 0.03 0.03
0.00 0.00 0.00 0.00 0.00 0.00 0.00 0.00 0.00 0.00 0.00 0.00 0.00 0.00 0.00 0.00 0.00 0.00 0.00 0.00 0.00 0.00 0.08 0.09 0.06 0.04 0.16 0.21 0.17 0.18 0.06 0.00 0.00 0.00 0.00 0.00 0.00 0.01 0.01 0.00 0.00 0.00 0.00 0.00
0.00 0.00 0.00 0.00 0.00 0.00 0.00 0.00 0.00 0.00 0.00 0.00 0.00 0.00 0.00 0.00 0.00 0.00 0.00 0.00 0.00 0.02 0.06 0.10 0.09 0.09 0.17 0.15 0.24 0.15 0.06 0.00 0.00 0.00 0.00 0.00 0.00 0.00 0.00 0.00 0.00 0.00 0.00 0.00
0.00 0.00 0.00 0.00 0.00 0.00 0.00 0.00 0.00 0.00 0.00 0.00 0.00 0.00 0.00 0.00 0.00 0.00 0.00 0.00 0.00 0.01 0.05 0.13 0.08 0.09 0.13 0.19 0.21 0.05 0.00 0.00 0.00 0.00 0.00 0.00 0.00 0.00 0.00 0.00 0.00 0.00 0.01 0.01
0.00 0.00 0.00 0.00 0.00 0.00 0.00 0.00 0.00 0.00 0.00 0.00 0.00 0.00 0.00 0.00 0.00 0.00 0.00 0.00 0.00 0.01 0.05 0.08 0.06 0.03 0.09 0.11 0.02 0.00 0.00 0.00 0.00 0.00 0.00 0.00 0.00 0.00 0.00 0.00 0.00 0.00 0.01 0.04
0.00 0.00 0.00 0.00 0.00 0.00 0.00 0.00 0.00 0.00 0.00 0.00 0.00 0.00 0.00 0.00 0.00 0.01 0.01 0.00 0.00 0.01 0.01 0.00 0.02 0.03 0.02 0.01 0.00 0.00 0.00 0.00 0.00 0.00 0.00 0.00 0.00 0.00 0.00 0.00 0.00 0.00 0.00 0.00
0.00 0.00 0.00 0.00 0.00 0.00 0.00 0.00 0.00 0.00 0.00 0.00 0.00 0.00 0.00 0.00 0.00 0.04 0.06 0.03 0.04 0.06 0.01 0.00 0.02 0.02 0.03 0.01 0.00 0.00 0.00 0.00 0.00 0.00 0.00 0.00 0.00 0.00 0.00 0.00 0.00 0.00 0.00 0.00
0.00 0.00 0.00 0.00 0.00 0.00 0.00 0.00 0.00 0.00 0.00 0.00 0.00 0.00 0.00 0.00 0.00 0.08 0.26 0.34 0.25 0.11 0.07 0.01 0.01 0.01 0.01 0.00 0.00 0.00 0.00 0.00 0.00 0.00 0.00 0.00 0.00 0.00 0.00 0.00 0.00 0.00 0.00 0.01
0.00 0.00 0.00 0.00 0.00 0.00 0.00 0.00 0.00 0.00 0.00 0.00 0.00 0.00 0.00 0.00 0.00 0.03 0.06 0.31 0.27 0.19 0.15 0.05 0.01 0.01 0.01 0.00 0.00 0.00 0.00 0.00 0.00 0.00 0.00 0.00 0.00 0.00 0.00 0.00 0.00 0.00 0.00 0.00
0.00 0.00 0.00 0.00 0.00 0.00 0.00 0.00 0.00 0.00 0.00 0.00 0.00 0.00 0.00 0.00 0.00 0.01 0.03 0.03 0.14 0.16 0.12 0.16 0.09 0.02 0.00 0.00 0.00 0.00 0.00 0.00 0.00 0.00 0.00 0.00 0.00 0.00 0.00 0.00 0.00 0.00 0.00 0.00
0.00 0.00 0.00 0.00 0.00 0.00 0.00 0.00 0.00 0.00 0.00 0.00 0.00 0.00 0.00 0.00 0.00 0.00 0.00 0.00 0.04 0.14 0.10 0.13 0.09 0.02 0.00 0.00 0.00 0.00 0.00 0.00 0.00 0.00 0.00 0.00 0.00 0.00 0.00 0.00 0.00 0.00 0.00 0.00
0.00 0.00 0.00 0.00 0.00 0.00 0.00 0.00 0.00 0.00 0.00 0.00 0.00 0.00 0.00 0.00 0.00 0.00 0.00 0.00 0.02 0.13 0.15 0.13 0.10 0.01 0.00 0.00 0.00 0.00 0.00 0.00 0.00 0.00 0.00 0.00 0.00 0.00 0.00 0.00 0.00 0.00 0.00 0.00
0.00 0.00 0.00 0.00 0.00 0.00 0.00 0.00 0.00 0.00 0.00 0.00 0.00 0.00 0.00 0.00 0.00 0.00 0.00 0.01 0.05 0.15 0.12 0.12 0.05 0.00 0.00 0.00 0.00 0.00 0.01 0.00 0.00 0.00 0.00 0.00 0.00 0.00 0.00 0.00 0.00 0.00 0.00 0.00
0.00 0.00 0.00 0.00 0.00 0.00 0.00 0.00 0.00 0.00 0.00 0.00 0.00 0.00 0.00 0.00 0.00 0.00 0.00 0.00 0.02 0.10 0.22 0.22 0.11 0.00 0.02 0.02 0.00 0.00 0.00 0.00 0.00 0.00 0.00 0.00 0.00 0.00 0.00 0.00 0.00 0.00 0.00 0.00
0.00 0.00 0.00 0.00 0.00 0.00 0.00 0.00 0.00 0.00 0.00 0.00 0.00 0.00 0.00 0.00 0.00 0.00 0.02 0.02 0.11 0.18 0.24 0.30 0.13 0.04 0.05 0.05 0.02 0.02 0.03 0.04 0.03 0.01 0.00 0.00 0.00 0.00 0.00 0.00 0.00 0.00 0.00 0.00
0.00 0.00 0.00 0.00 0.00 0.00 0.00 0.00 0.00 0.00 0.00 0.00 0.00 0.00 0.00 0.00 0.00 0.01 0.02 0.01 0.02 0.04 0.08 0.04 0.05 0.05 0.04 0.02 0.01 0.02 0.08 0.08 0.04 0.02 0.00 0.00 0.00 0.00 0.00 0.00 0.00 0.00 0.00 0.00
0.00 0.00 0.00 0.00 0.00 0.00 0.00 0.00 0.00 0.00 0.00 0.00 0.00 0.00 0.00 0.00 0.00 0.01 0.03 0.02 0.00 0.05 0.03 0.02 0.01 0.02 0.02 0.01 0.01 0.00 0.00 0.01 0.01 0.00 0.00 0.00 0.00 0.00 0.00 0.00 0.00 0.03 0.00 0.00
0.00 0.00 0.00 0.00 0.00 0.00 0.00 0.00 0.00 0.00 0.00 0.00 0.00 0.00 0.00 0.00 0.00 0.00 0.00 0.01 0.01 0.03 0.03 0.01 0.00 0.00 0.00 0.00 0.00 0.00 0.00 0.00 0.00 0.00 0.00 0.00 0.00 0.00 0.00 0.01 0.01 0.01 0.00 0.00
0.00 0.00 0.00 0.00 0.00 0.00 0.00 0.00 0.00 0.00 0.00 0.00 0.00 0.01 0.01 0.00 0.00 0.00 0.00 0.01 0.03 0.04 0.03 0.02 0.00 0.00 0.00 0.00 0.00 0.00 0.00 0.00 0.00 0.00 0.00 0.00 0.00 0.01 0.00 0.00 0.00 0.00 0.00 0.00
0.00 0.00 0.00 0.00 0.00 0.00 0.00 0.00 0.00 0.01 0.00 0.00 0.02 0.03 0.02 0.00 0.00 0.00 0.03 0.03 0.02 0.01 0.02 0.01 0.00 0.00 0.00 0.00 0.00 0.00 0.00 0.00 0.00 0.00 0.00 0.00 0.01 0.01 0.00 0.00 0.00 0.00 0.00 0.00
0.00 0.00 0.00 0.00 0.00 0.01 0.02 0.04 0.07 0.08 0.04 0.04 0.06 0.07 0.04 0.00 0.00 0.00 0.01 0.01 0.00 0.00 0.00 0.00 0.00 0.00 0.00 0.00 0.00 0.00 0.00 0.00 0.00 0.00 0.00 0.00 0.01 0.00 0.00 0.00 0.00 0.00 0.00 0.00
0.00 0.00 0.00 0.00 0.00 0.00 0.01 0.02 0.03 0.05 0.09 0.13 0.19 0.21 0.12 0.05 0.04 0.00 0.00 0.00 0.00 0.00 0.00 0.00 0.00 0.00 0.00 0.00 0.00 0.00 0.00 0.00 0.00 0.00 0.00 0.00 0.00 0.00 0.00 0.00 0.00 0.00 0.00 0.00
0.00 0.00 0.00 0.00 0.00 0.00 0.00 0.00 0.01 0.01 0.03 0.07 0.08 0.07 0.06 0.07 0.05 0.02 0.00 0.00 0.00 0.00 0.00 0.00 0.00 0.00 0.00 0.00 0.00 0.00 0.00 0.00 0.00 0.00 0.00 0.00 0.00 0.00 0.00 0.00 0.00 0.00 0.00 0.00
0.00 0.00 0.00 0.00 0.00 0.00 0.00 0.00 0.00 0.00 0.05 0.07 0.08 0.08 0.11 0.07 0.02 0.00 0.00 0.00 0.00 0.00 0.00 0.00 0.00 0.00 0.00 0.00 0.00 0.00 0.00 0.00 0.00 0.00 0.00 0.00 0.00 0.00 0.00 0.00 0.00 0.00 0.00 0.00
MSLP
1006.54 1007.40 1007.41 1007.78 1007.84 1007.36 1007.45 1007.66 1007.01 1005.60 1004.53 1005.07 1005.10 1005.81 1006.10 1007.74 1009.30 1010.33 1010.58 1010.66 1010.55 1011.11 1013.61 1013.33 1012.81 1011.77 1011.71 1011.05 1010.72 1010.81 1011.16 1011.54 1012.10 1012.52 1013.08 1013.15 1013.03 1012.91 1013.02 1013.10 1012.83 1012.59 1012.76 1012.74
1007.15 1007.02 1006.58 1006.93 1007.15 1007.16 1006.79 1006.68 1006.46 1005.39 1004.69 1005.53 1005.33 1006.14 1007.24 1008.12 1009.11 1009.26 1009.77 1009.50 1010.75 1012.43 1012.36 1011.62 1013.08 1012.07 1011.12 1011.34 1010.50 1010.76 1010.94 1011.39 1011.85 1012.35 1012.59 1012.64 1012.75 1012.78 1012.68 1012.63 1012.68 1012.41 1012.39 1012.39
1006.92 1005.70 1005.66 1006.23 1006.10 1006.28 1005.97 1005.94 1005.41 1005.10 1004.65 1005.46 1006.03 1006.84 1007.13 1008.51 1008.74 1009.69 1009.89 1009.18 1009.81 1011.06 1011.46 1010.89 1011.24 1011.08 1010.27 1010.81 1010.70 1010.65 1011.10 1011.29 1011.67 1012.32 1012.38 1012.69 1012.82 1012.81 1012.86 1012.66 1012.39 1012.35 1012.34 1012.31
1006.24 1005.16 1005.22 1005.20 1005.38 1005.10 1005.37 1004.67 1004.79 1005.07 1005.31 1005.93 1006.33 1007.66 1008.03 1008.45 1009.31 1009.52 1009.52 1009.56 1009.17 1009.02 1009.07 1009.59 1010.28 1010.83 1010.95 1010.99 1010.78 1010.74 1011.32 1011.57 1011.76 1012.36 1012.37 1012.83 1012.90 1013.09 1012.94 1012.74 1012.37 1012.15 1012.01 1012.07
1005.27 1004.59 1004.49 1004.35 1003.99 1003.87 1004.21 1004.06 1004.58 1005.04 1005.97 1006.58 1006.77 1007.74 1007.94 1008.02 1009.15 1008.93 1009.04 1009.40 1008.62 1008.12 1008.59 1008.79 1009.38 1010.39 1010.64 1010.50 1011.16 1011.07 1011.70 1011.87 1012.02 1012.35 1012.53 1012.91 1012.92 1012.87 1012.78 1012.57 1012.21 1011.97 1011.73 1011.59
1005.11 1004.34 1004.16 1003.44 1002.93 1003.04 1003.10 1004.01 1005.20 1006.21 1007.17 1007.82 1007.43 1008.23 1007.77 1008.13 1007.59 1007.56 1007.68 1008.33 1008.04 1008.35 1008.72 1009.06 1009.45 1009.73 1010.48 1011.03 1011.25 1011.39 1011.88 1012.17 1012.16 1012.40 1012.76 1012.70 1012.72 1012.69 1012.69 1012.43 1012.09 1011.82 1011.42 1011.33
1005.28 1004.29 1003.45 1003.17 1003.05 1002.62 1003.13 1005.09 1006.79 1008.06 1008.68 1008.95 1007.88 1008.42 1007.57 1007.53 1006.91 1006.55 1006.60 1007.72 1007.36 1007.94 1008.68 1009.48 1009.94 1010.47 1010.92 1010.91 1011.37 1011.99 1012.12 1012.22 1012.53 1012.66 1012.64 1012.67 1012.69 1012.69 1012.68 1012.14 1011.83 1011.71 1011.51 1011.25
1005.73 1004.38 1002.84 1002.15 1002.22 1002.48 1003.39 1005.12 1006.98 1008.46 1009.62 1009.32 1008.21 1008.26 1007.15 1006.67 1007.60 1006.88 1006.40 1006.98 1007.02 1008.13 1008.55 1009.36 1009.81 1010.42 1010.86 1011.21 1011.76 1012.09 1012.01 1012.26 1012.93 1012.80 1012.64 1012.73 1012.71 1012.62 1012.27 1011.78 1011.86 1011.89 1011.66 1011.27
1005.32 1004.16 1002.41 1002.04 1002.15 1002.45 1003.12 1004.64 1005.52 1007.71 1009.30 1009.64 1009.01 1008.48 1007.68 1007.02 1006.87 1006.35 1007.57 1007.55 1008.50 1009.07 1008.94 1009.49 1010.03 1010.14 1011.07 1011.54 1011.60 1011.65 1012.24 1012.67 1012.81 1012.84 1012.76 1012.81 1012.78 1012.75 1012.33 1012.03 1011.76 1011.84 1011.65 1011.50
1004.36 1004.49 1002.53 1001.78 1001.97 1001.60 1001.97 1003.44 1005.69 1008.00 1009.29 1009.87 1009.38 1008.76 1007.93 1008.05 1007.44 1007.74 1010.25 1011.00 1010.87 1012.12 1011.26 1009.82 1010.10 1010.77 1010.76 1011.32 1011.56 1011.96 1012.33 1012.70 1012.75 1012.66 1012.65 1012.88 1012.90 1012.60 1012.47 1012.26 1012.18 1012.13 1011.99 1011.66
1003.88 1004.54 1002.84 1002.74 1002.31 1002.22 1002.36 1003.40 1005.29 1007.05 1008.28 1009.26 1009.59 1009.13 1007.26 1007.53 1008.57 1008.92 1010.14 1010.46 1010.18 1010.39 1011.03 1012.38 1010.46 1010.73 1010.72 1010.87 1011.36 1011.60 1012.19 1012.47 1012.72 1012.80 1012.68 1012.78 1012.78 1012.62 1012.48 1012.38 1012.53 1012.44 1012.35 1012.19
1002.97 1004.09 1004.02 1003.03 1001.85 1001.86 1002.22 1003.09 1004.33 1006.60 1007.94 1008.54 1008.63 1008.45 1007.05 1007.37 1008.94 1009.04 1010.00 1009.53 1009.05 1008.55 1008.99 1011.78 1011.79 1010.98 1010.64 1010.81 1011.32 1011.64 1011.94 1012.15 1012.46 1012.55 1012.83 1012.73 1012.76 1012.78 1012.48 1012.56 1012.81 1012.77 1012.69 1012.62
1002.25 1003.82 1004.23 1003.28 1002.56 1001.76 1001.96 1002.37 1003.21 1004.60 1006.18 1007.46 1008.56 1008.07 1007.62 1007.67 1008.23 1008.93 1009.10 1009.45 1008.69 1008.13 1007.82 1010.14 1011.88 1011.64 1010.84 1010.85 1011.30 1011.47 1011.94 1012.09 1012.24 1012.48 1012.76 1012.88 1012.97 1012.82 1012.69 1012.79 1012.99 1013.01 1013.04 1013.08
1001.69 1003.26 1003.63 1003.60 1002.84 1002.26 1002.08 1002.04 1002.44 1003.60 1005.43 1006.21 1007.00 1007.59 1008.29 1008.36 1008.83 1008.97 1009.06 1009.34 1009.50 1009.26 1009.64 1010.62 1011.13 1011.86 1010.97 1010.90 1011.29 1011.45 1011.79 1011.98 1012.22 1012.35 1012.59 1012.72 1012.86 1012.81 1012.90 1013.07 1013.29 1013.42 1013.54 1013.61
1002.53 1003.52 1003.61 1003.16 1002.87 1002.34 1002.12 1001.97 1001.99 1002.90 1003.22 1004.79 1005.46 1006.34 1006.62 1007.39 1008.70 1008.73 1009.64 1009.98 1009.21 1008.36 1009.57 1010.73 1011.50 1011.66 1010.87 1011.03 1010.98 1011.33 1011.66 1011.81 1011.91 1012.07 1012.40 1012.58 1012.61 1012.72 1013.02 1013.40 1013.71 1013.98 1013.99 1014.10
1003.17 1003.90 1003.85 1003.44 1002.72 1002.33 1002.01 1001.51 1001.54 1001.39 1001.81 1002.93 1004.24 1005.41 1005.55 1007.23 1008.22 1009.05 1009.43 1009.70 1009.90 1010.05 1010.61 1011.70 1012.02 1011.19 1011.46 1011.68 1011.96 1011.84 1011.99 1011.84 1011.87 1011.84 1012.14 1012.38 1012.68 1013.00 1013.32 1013.69 1014.21 1014.52 1014.69 1014.84
1004.17 1004.56 1004.84 1004.62 1003.68 1002.96 1002.52 1001.33 1001.19 1001.28 1001.59 1002.19 1003.86 1004.27 1005.36 1007.28 1008.41 1008.53 1008.75 1009.39 1009.42 1009.76 1010.87 1011.34 1011.93 1012.26 1012.26 1012.64 1012.45 1012.42 1012.53 1012.22 1012.17 1012.27 1012.19 1012.30 1012.71 1013.28 1013.56 1014.00 1014.70 1015.29 1015.65 1015.91
1004.55 1005.25 1005.53 1005.68 1004.88 1004.06 1002.52 1001.12 1001.03 1001.21 1001.44 1002.19 1002.93 1004.11 1005.42 1006.84 1007.83 1008.50 1009.07 1009.11 1009.46 1009.86 1010.71 1011.56 1012.38 1013.01 1013.22 1013.19 1013.06 1013.04 1012.67 1012.49 1012.50 1012.44 1012.43 1012.71 1012.87 1013.53 1013.91 1014.47 1015.28 1015.93 1016.32 1016.83
1004.58 1005.49 1006.20 1006.35 1005.99 1004.69 1003.02 1001.64 1001.47 1001.51 1001.98 1002.64 1003.60 1005.03 1006.13 1007.24 1008.52 1009.52 1009.35 1009.84 1010.20 1010.75 1011.65 1011.91 1012.56 1013.03 1013.58 1013.53 1013.58 1013.15 1013.19 1013.01 1012.77 1012.51 1012.51 1012.71 1013.23 1014.05 1014.57 1015.19 1015.97 1016.80 1017.22 1017.79
1005.12 1005.77 1006.83 1007.24 1006.76 1005.81 1004.15 1002.43 1001.48 1001.71 1002.54 1003.03 1004.43 1005.38 1006.48 1007.36 1008.83 1010.03 1010.80 1010.87 1011.18 1012.24 1012.57 1012.87 1013.25 1013.58 1013.84 1014.34 1013.62 1013.57 1013.98 1013.94 1013.76 1013.45 1013.12 1013.04 1013.64 1014.37 1015.33 1016.07 1016.77 1017.41 1017.96 1018.55
1006.52 1006.89 1007.52 1007.71 1007.18 1006.27 1005.56 1004.37 1002.67 1003.64 1004.63 1003.49 1004.43 1005.82 1006.71 1007.50 1008.30 1009.90 1011.41 1012.23 1012.80 1013.20 1013.56 1013.59 1013.96 1014.64 1014.77 1014.18 1014.16 1014.62 1014.84 1014.84 1014.68 1014.43 1014.26 1014.32 1014.86 1015.26 1016.07 1016.82 1017.58 1018.07 1018.72 1019.07
1007.60 1008.15 1008.18 1008.15 1007.96 1007.60 1006.55 1005.40 1006.08 1006.74 1005.61 1005.62 1005.73 1006.52 1007.81 1008.78 1009.91 1011.17 1012.19 1013.01 1013.59 1014.05 1014.59 1014.98 1015.18 1015.19 1014.93 1014.84 1015.21 1015.56 1015.67 1015.74 1015.41 1015.22 1015.40 1015.78 1016.13 1016.58 1017.08 1017.54 1018.40 1018.85 1019.17 1019.55
1008.64 1008.54 1008.48 1008.61 1008.66 1008.68 1008.39 1008.28 1008.31 1007.28 1007.14 1007.32 1007.68 1008.78 1007.88 1009.20 1010.56 1011.27 1012.27 1012.95 1013.50 1014.06 1014.57 1014.98 1014.98 1015.20 1015.56 1015.85 1016.23 1016.40 1016.44 1016.25 1016.11 1016.10 1016.48 1016.89 1017.29 1017.70 1018.09 1018.54 1019.06 1019.39 1019.95 1020.16
1008.89 1008.77 1008.81 1008.89 1009.41 1009.11 1008.79 1008.73 1008.46 1008.02 1008.14 1008.14 1008.38 1010.10 1011.34 1009.71 1011.01 1012.00 1012.59 1013.07 1013.67 1014.25 1014.49 1014.73 1015.23 1015.71 1016.27 1016.51 1016.64 1016.82 1016.90 1016.80 1016.75 1017.13 1017.46 1017.82 1018.18 1018.67 1019.00 1019.52 1019.62 1020.07 1020.61 1021.10
1009.27 1009.05 1009.10 1009.44 1009.48 1009.02 1008.94 1009.03 1008.79 1008.66 1008.49 1008.52 1008.55 1008.83 1010.93 1011.80 1012.92 1013.28 1013.54 1013.93 1014.27 1014.82 1015.23 1015.47 1015.69 1016.23 1016.68 1016.92 1016.98 1017.08 1017.33 1017.52 1017.79 1018.29 1018.78 1018.93 1019.30 1019.66 1020.17 1020.66 1020.73 1021.09 1021.52 1021.56
1009.23 1009.22 1009.38 1009.79 1009.63 1009.36 1009.44 1009.55 1009.21 1008.97 1008.86 1008.68 1009.01 1010.56 1011.66 1012.49 1013.55 1014.31 1014.14 1014.59 1014.87 1015.33 1015.87 1016.19 1016.54 1016.54 1016.96 1017.28 1017.55 1017.75 1017.96 1018.11 1018.36 1018.87 1019.41 1019.89 1020.27 1020.69 1021.13 1021.45 1021.83 1022.14 1022.18 1022.24
Thickness
5814 5790 5774 5782 5791 5799 5795 5783 5782 5805 5826 5815 5813 5810 5821 5807 5789 5786 5783 5780 5780 5778 5753 5755 5754 5743 5764 5775 5774 5771 5769 5766 5762 5755 5750 5747 5744 5742 5739 5736 5734 5732 5729 5730
5792 5775 5801 5806 5802 5797 5797 5787 5782 5804 5822 5807 5810 5804 5799 5795 5791 5796 5794 5794 5777 5762 5762 5770 5745 5751 5767 5767 5773 5772 5772 5768 5762 5755 5752 5748 5742 5738 5735 5730 5725 5724 5726 5726
5775 5798 5817 5805 5799 5792 5793 5790 5795 5794 5815 5808 5797 5788 5794 5787 5796 5792 5792 5800 5794 5781 5772 5773 5768 5762 5777 5768 5768 5770 5766 5765 5760 5751 5751 5745 5739 5732 5723 5722 5721 5721 5721 5720
5787 5811 5807 5803 5796 5801 5777 5810 5809 5804 5792 5767 5796 5743 5781 5779 5773 5783 5783 5787 5791 5795 5792 5785 5774 5764 5763 5764 5769 5767 5760 5759 5756 5748 5747 5739 5732 5722 5718 5716 5718 5719 5719 5717
5786 5803 5799 5795 5804 5812 5795 5817 5808 5809 5787 5780 5783 5751 5763 5788 5763 5774 5778 5779 5793 5801 5794 5790 5781 5767 5767 5773 5768 5764 5756 5755 5751 5746 5742 5734 5728 5720 5717 5716 5717 5717 5718 5717
5792 5816 5807 5808 5821 5821 5828 5814 5788 5778 5763 5738 5769 5755 5754 5768 5783 5785 5789 5787 5795 5792 5790 5788 5781 5777 5770 5767 5763 5759 5752 5750 5748 5742 5735 5733 5727 5718 5714 5715 5715 5715 5717 5718
5775 5789 5808 5817 5801 5818 5812 5771 5728 5730 5723 5725 5766 5750 5756 5772 5792 5797 5795 5788 5796 5793 5787 5778 5773 5769 5765 5764 5758 5752 5750 5746 5740 5735 5735 5734 5728 5717 5715 5717 5716 5716 5716 5718
5740 5743 5796 5821 5804 5793 5793 5770 5729 5717 5713 5727 5759 5746 5761 5787 5782 5795 5801 5801 5799 5785 5785 5777 5773 5771 5765 5761 5755 5751 5749 5741 5731 5733 5733 5731 5728 5719 5718 5720 5717 5715 5715 5718
5738 5751 5807 5810 5813 5805 5792 5770 5782 5746 5741 5721 5736 5755 5767 5785 5795 5800 5788 5794 5782 5768 5773 5770 5770 5774 5764 5758 5756 5752 5742 5735 5733 5733 5732 5730 5726 5720 5719 5719 5719 5715 5715 5716
5765 5743 5796 5809 5813 5814 5802 5803 5761 5733 5726 5715 5724 5738 5736 5760 5783 5777 5737 5730 5743 5736 5747 5771 5770 5763 5767 5759 5754 5747 5739 5734 5734 5736 5734 5729 5725 5722 5721 5719 5716 5713 5713 5714
5771 5755 5781 5792 5784 5775 5785 5777 5767 5752 5733 5714 5704 5721 5763 5766 5769 5765 5748 5745 5754 5760 5755 5742 5765 5763 5765 5763 5756 5753 5745 5740 5736 5734 5734 5730 5726 5724 5722 5720 5715 5712 5711 5711
5780 5752 5744 5764 5801 5807 5797 5779 5769 5732 5738 5728 5724 5728 5776 5778 5762 5763 5755 5765 5770 5777 5773 5747 5746 5757 5764 5761 5755 5751 5748 5744 5739 5735 5731 5729 5724 5721 5721 5718 5713 5711 5708 5707
5780 5741 5726 5750 5772 5792 5790 5789 5782 5760 5743 5734 5719 5730 5770 5773 5767 5763 5762 5759 5765 5776 5782 5759 5743 5746 5758 5757 5752 5749 5744 5743 5741 5734 5729 5724 5720 5720 5719 5715 5712 5709 5706 5704
5785 5746 5745 5738 5754 5777 5777 5785 5790 5767 5731 5742 5739 5748 5754 5760 5760 5760 5761 5758 5752 5750 5735 5739 5745 5741 5755 5755 5749 5746 5742 5742 5738 5734 5728 5722 5719 5718 5716 5713 5709 5706 5703 5700
5767 5746 5758 5760 5770 5778 5778 5777 5782 5767 5770 5753 5765 5764 5771 5768 5757 5767 5759 5750 5759 5759 5747 5741 5740 5741 5756 5753 5751 5746 5739 5738 5737 5734 5727 5721 5720 5718 5714 5708 5704 5700 5699 5696
5755 5741 5756 5755 5771 5774 5769 5778 5780 5789 5792 5777 5765 5765 5780 5766 5767 5761 5761 5755 5751 5751 5743 5729 5737 5748 5743 5740 5737 5737 5734 5735 5736 5734 5726 5722 5718 5714 5709 5704 5698 5695 5693 5691
5741 5734 5723 5725 5753 5756 5740 5772 5779 5782 5787 5777 5758 5776 5775 5759 5756 5759 5758 5757 5756 5753 5743 5735 5732 5731 5733 5727 5729 5727 5726 5730 5729 5728 5727 5721 5718 5710 5707 5701 5694 5688 5684 5681
5733 5727 5716 5711 5732 5709 5752 5784 5785 5779 5786 5780 5778 5774 5771 5760 5758 5758 5757 5755 5752 5750 5742 5735 5727 5721 5720 5721 5721 5720 5724 5725 5724 5722 5722 5718 5714 5705 5701 5696 5688 5682 5679 5673
5733 5720 5711 5703 5698 5726 5752 5775 5773 5769 5767 5779 5769 5763 5763 5760 5751 5741 5751 5753 5748 5741 5732 5732 5727 5722 5716 5714 5712 5716 5715 5715 5718 5720 5717 5713 5708 5699 5694 5688 5680 5671 5668 5662
5723 5718 5708 5697 5701 5696 5733 5769 5785 5781 5737 5778 5768 5763 5760 5757 5736 5740 5737 5737 5733 5725 5722 5721 5719 5715 5711 5704 5711 5710 5704 5703 5703 5707 5710 5709 5703 5696 5686 5679 5671 5663 5658 5652
5691 5697 5692 5688 5693 5710 5733 5746 5775 5731 5732 5775 5771 5759 5758 5754 5751 5740 5728 5721 5717 5713 5711 5712 5709 5700 5700 5705 5704 5697 5693 5690 5691 5693 5695 5695 5690 5685 5676 5668 5659 5653 5646 5642
5682 5673 5677 5683 5687 5685 5723 5738 5726 5721 5741 5747 5751 5746 5738 5736 5728 5719 5713 5707 5705 5703 5698 5694 5691 5691 5692 5693 5687 5682 5680 5679 5681 5682 5679 5676 5672 5668 5662 5656 5647 5642 5637 5632
5667 5674 5674 5679 5675 5693 5702 5703 5708 5725 5726 5730 5731 5727 5738 5728 5719 5717 5710 5705 5701 5697 5692 5686 5685 5683 5679 5675 5671 5669 5667 5669 5669 5669 5665 5661 5657 5652 5648 5641 5637 5632 5626 5622
5665 5676 5672 5678 5678 5684 5692 5698 5704 5711 5715 5722 5724 5710 5691 5709 5705 5700 5699 5696 5692 5686 5684 5682 5676 5671 5666 5663 5660 5656 5656 5657 5657 5654 5652 5648 5644 5639 5634 5627 5625 5621 5614 5609
5655 5667 5667 5667 5674 5684 5686 5690 5697 5699 5705 5709 5713 5702 5674 5684 5677 5676 5679 5680 5679 5675 5671 5668 5666 5660 5655 5651 5650 5647 5645 5644 5640 5635 5631 5630 5628 5622 5617 5611 5609 5605 5600 5598
5649 5652 5651 5651 5666 5672 5675 5678 5687 5690 5695 5702 5700 5686 5678 5672 5661 5659 5671 5670 5669 5665 5659 5655 5651 5651 5646 5641 5637 5635 5633 5632 5629 5625 5622 5616 5611 5607 5601 5598 5592 5589 5587 5585